ステレオ彗星

C/2014 C2 ( STEREO )

English version
Home page
Updated on September 28, 2014

---------------------------------------------------------------------

・ プロフィール

発見日 2014年2月1日
発見光度 7.0等
発見者 Alan Watson (STEREO-A satellite)

・ 写真集

・ 軌道要素

Epoch 2014 Mar. 4.0 TT = JDT 2456720.5
T 2014 Feb. 18.23315 TT                                 MPC
q   0.5122496            (2000.0)            P               Q
z  +0.0015210      Peri.   56.04518     -0.44680944     -0.57920964
 +/-0.0000196      Node   283.34896     -0.85516645     +0.50037432
e   0.9992209      Incl.  135.51261     +0.26277684     +0.64353845
From 154 observations 2014 Jan. 31-Mar. 30, mean residual 0".8.

・ 星図

・ 光度変化

        m1 = 18.5 + 5 logΔ + 12.5 log r(t - 8)

        ※ 灰色の曲線は、m1 = 8.5 + 5 logΔ + 10.0 log r の光度曲線です。

---------------------------------------------------------------------

軌道要素はM.P.E.C. 2014-L52に掲載されたものです。
星図はステラナビゲータ Ver.8 (アストロアーツ) で作成したものです。
光度グラフはComet for Windowsで作成したものです。

---------------------------------------------------------------------

Copyright(C) Seiichi Yoshida (comet@aerith.net). All rights reserved.